Time,TemperatureF,DewpointF,PressureIn,WindDirection,WindDirectionDegrees,WindSpeedMPH,WindSpeedGustMPH,Humidity,HourlyPrecipIn,Conditions,Clouds,dailyrainin,SolarRadiationWatts/m^2,SoftwareType,DateUTC
2013-01-13 00:22:00,-3.0,-9.0,-100.00,SSW,194,3.0,4.0,75,0.00,,,0.00,0.000000,,2013-01-13 07:22:00,
2013-01-13 00:32:00,-3.0,-9.0,-100.00,SSW,194,3.0,4.0,75,0.00,,,0.00,0.000000,,2013-01-13 07:32:00,
2013-01-13 00:42:00,-3.0,-9.0,-100.00,SSW,194,3.0,4.0,75,0.00,,,0.00,0.000000,,2013-01-13 07:42:00,
2013-01-13 00:52:00,-3.0,-9.0,-100.00,SSW,194,3.0,4.0,75,0.00,,,0.00,0.000000,,2013-01-13 07:52:00,
2013-01-13 01:22:00,-4.0,-10.0,-100.00,South,191,3.0,5.0,75,0.00,,,0.00,0.000000,,2013-01-13 08:22:00,
2013-01-13 01:32:00,-4.0,-10.0,-100.00,South,191,3.0,5.0,75,0.00,,,0.00,0.000000,,2013-01-13 08:32:00,
2013-01-13 01:42:00,-4.0,-10.0,-100.00,South,191,3.0,5.0,75,0.00,,,0.00,0.000000,,2013-01-13 08:42:00,
2013-01-13 01:52:00,-4.0,-10.0,-100.00,South,191,3.0,5.0,75,0.00,,,0.00,0.000000,,2013-01-13 08:52:00,
2013-01-13 02:22:00,-5.0,-11.0,-100.00,SSE,150,4.0,5.0,74,0.00,,,0.00,0.000000,,2013-01-13 09:22:00,
2013-01-13 02:32:00,-5.0,-11.0,-100.00,SSE,150,4.0,5.0,74,0.00,,,0.00,0.000000,,2013-01-13 09:32:00,
2013-01-13 02:42:00,-5.0,-11.0,-100.00,SSE,150,4.0,5.0,74,0.00,,,0.00,0.000000,,2013-01-13 09:42:00,
2013-01-13 02:52:00,-5.0,-11.0,-100.00,SSE,150,4.0,5.0,74,0.00,,,0.00,0.000000,,2013-01-13 09:52:00,
2013-01-13 03:22:00,-6.0,-12.0,-100.00,South,177,3.0,5.0,74,0.00,,,0.00,0.000000,,2013-01-13 10:22:00,
2013-01-13 03:32:00,-6.0,-12.0,-100.00,South,177,3.0,5.0,74,0.00,,,0.00,0.000000,,2013-01-13 10:32:00,
2013-01-13 03:42:00,-6.0,-12.0,-100.00,South,177,3.0,5.0,74,0.00,,,0.00,0.000000,,2013-01-13 10:42:00,
2013-01-13 03:52:00,-6.0,-12.0,-100.00,South,177,3.0,5.0,74,0.00,,,0.00,0.000000,,2013-01-13 10:52:00,
2013-01-13 04:22:00,-6.0,-12.0,-100.00,South,179,3.0,5.0,74,0.00,,,0.00,0.000000,,2013-01-13 11:22:00,
2013-01-13 04:32:00,-6.0,-12.0,-100.00,South,179,3.0,5.0,74,0.00,,,0.00,0.000000,,2013-01-13 11:32:00,
2013-01-13 04:42:00,-6.0,-12.0,-100.00,South,179,3.0,5.0,74,0.00,,,0.00,0.000000,,2013-01-13 11:42:00,
2013-01-13 04:52:00,-6.0,-12.0,-100.00,South,179,3.0,5.0,74,0.00,,,0.00,0.000000,,2013-01-13 11:52:00,
2013-01-13 05:22:00,-7.0,-13.0,-100.00,SSE,160,1.0,4.0,73,0.00,,,0.00,0.000000,,2013-01-13 12:22:00,
2013-01-13 05:32:00,-7.0,-13.0,-100.00,SSE,160,1.0,4.0,73,0.00,,,0.00,0.000000,,2013-01-13 12:32:00,
2013-01-13 05:42:00,-7.0,-13.0,-100.00,SSE,160,1.0,4.0,73,0.00,,,0.00,0.000000,,2013-01-13 12:42:00,
2013-01-13 05:52:00,-7.0,-13.0,-100.00,SSE,160,1.0,4.0,73,0.00,,,0.00,0.000000,,2013-01-13 12:52:00,
2013-01-13 06:22:00,-8.0,-15.0,-100.00,SSE,148,1.0,2.0,72,0.00,,,0.00,0.000000,,2013-01-13 13:22:00,
2013-01-13 06:32:00,-8.0,-15.0,-100.00,SSE,148,1.0,2.0,72,0.00,,,0.00,0.000000,,2013-01-13 13:32:00,
2013-01-13 06:42:00,-8.0,-15.0,-100.00,SSE,148,1.0,2.0,72,0.00,,,0.00,0.000000,,2013-01-13 13:42:00,
2013-01-13 06:53:00,-8.0,-15.0,-100.00,SSE,148,1.0,2.0,72,0.00,,,0.00,0.000000,,2013-01-13 13:53:00,
2013-01-13 07:22:00,-7.0,-13.0,-100.00,SE,142,2.0,2.0,73,0.00,,,0.00,0.000000,,2013-01-13 14:22:00,
2013-01-13 07:33:00,-7.0,-13.0,-100.00,SE,142,2.0,2.0,73,0.00,,,0.00,0.000000,,2013-01-13 14:33:00,
2013-01-13 07:42:00,-7.0,-13.0,-100.00,SE,142,2.0,2.0,73,0.00,,,0.00,0.000000,,2013-01-13 14:42:00,
2013-01-13 07:52:00,-7.0,-13.0,-100.00,SE,142,2.0,2.0,73,0.00,,,0.00,0.000000,,2013-01-13 14:52:00,
2013-01-13 08:22:00,-7.0,-13.0,-100.00,SE,124,2.0,3.0,73,0.00,,,0.00,2.000000,,2013-01-13 15:22:00,
2013-01-13 08:33:00,-7.0,-13.0,-100.00,SE,124,2.0,3.0,73,0.00,,,0.00,2.000000,,2013-01-13 15:33:00,
2013-01-13 08:43:00,-7.0,-13.0,-100.00,SE,124,2.0,3.0,73,0.00,,,0.00,2.000000,,2013-01-13 15:43:00,
2013-01-13 08:52:00,-7.0,-13.0,-100.00,SE,124,2.0,3.0,73,0.00,,,0.00,2.000000,,2013-01-13 15:52:00,
2013-01-13 09:22:00,-3.0,-9.0,-100.00,SSE,155,3.0,3.0,73,0.00,,,0.00,30.000000,,2013-01-13 16:22:00,
2013-01-13 09:33:00,-3.0,-9.0,-100.00,SSE,155,3.0,3.0,73,0.00,,,0.00,30.000000,,2013-01-13 16:33:00,
2013-01-13 09:42:00,-3.0,-9.0,-100.00,SSE,155,3.0,3.0,73,0.00,,,0.00,30.000000,,2013-01-13 16:42:00,
2013-01-13 09:52:00,-3.0,-9.0,-100.00,SSE,155,3.0,3.0,73,0.00,,,0.00,30.000000,,2013-01-13 16:52:00,
2013-01-13 10:22:00,1.0,-6.0,-100.00,SSE,156,4.0,5.0,73,0.00,,,0.00,72.000000,,2013-01-13 17:22:00,
2013-01-13 10:33:00,1.0,-6.0,-100.00,SSE,156,4.0,5.0,73,0.00,,,0.00,72.000000,,2013-01-13 17:33:00,
2013-01-13 10:42:00,1.0,-6.0,-100.00,SSE,156,4.0,5.0,73,0.00,,,0.00,72.000000,,2013-01-13 17:42:00,
2013-01-13 10:52:00,1.0,-6.0,-100.00,SSE,156,4.0,5.0,73,0.00,,,0.00,72.000000,,2013-01-13 17:52:00,
2013-01-13 11:22:00,1.0,-5.0,-100.00,SSE,166,4.0,6.0,74,0.00,,,0.00,85.000000,,2013-01-13 18:22:00,
2013-01-13 11:32:00,1.0,-5.0,-100.00,SSE,166,4.0,6.0,74,0.00,,,0.00,85.000000,,2013-01-13 18:32:00,
2013-01-13 11:42:00,1.0,-5.0,-100.00,SSE,166,4.0,6.0,74,0.00,,,0.00,85.000000,,2013-01-13 18:42:00,
2013-01-13 11:53:00,1.0,-5.0,-100.00,SSE,166,4.0,6.0,74,0.00,,,0.00,85.000000,,2013-01-13 18:53:00,
2013-01-13 12:22:00,2.0,-4.0,-100.00,South,180,4.0,8.0,74,0.00,,,0.00,91.000000,,2013-01-13 19:22:00,
2013-01-13 12:33:00,2.0,-4.0,-100.00,South,180,4.0,8.0,74,0.00,,,0.00,91.000000,,2013-01-13 19:33:00,
2013-01-13 12:42:00,2.0,-4.0,-100.00,South,180,4.0,8.0,74,0.00,,,0.00,91.000000,,2013-01-13 19:42:00,
2013-01-13 12:52:00,2.0,-4.0,-100.00,South,180,4.0,8.0,74,0.00,,,0.00,91.000000,,2013-01-13 19:52:00,
2013-01-13 13:22:00,6.0,0.0,-100.00,SW,217,4.0,9.0,75,0.00,,,0.00,134.000000,,2013-01-13 20:22:00,
2013-01-13 13:32:00,6.0,0.0,-100.00,SW,217,4.0,9.0,75,0.00,,,0.00,134.000000,,2013-01-13 20:32:00,
2013-01-13 13:43:00,6.0,0.0,-100.00,SW,217,4.0,9.0,75,0.00,,,0.00,134.000000,,2013-01-13 20:43:00,
2013-01-13 13:52:00,6.0,0.0,-100.00,SW,217,4.0,9.0,75,0.00,,,0.00,134.000000,,2013-01-13 20:52:00,
2013-01-13 14:23:00,4.0,-2.0,-100.00,West,265,5.0,10.0,75,0.00,,,0.00,136.000000,,2013-01-13 21:23:00,
2013-01-13 14:33:00,4.0,-2.0,-100.00,West,265,5.0,10.0,75,0.00,,,0.00,136.000000,,2013-01-13 21:33:00,
2013-01-13 14:42:00,4.0,-2.0,-100.00,West,265,5.0,10.0,75,0.00,,,0.00,136.000000,,2013-01-13 21:42:00,
2013-01-13 14:52:00,4.0,-2.0,-100.00,West,265,5.0,10.0,75,0.00,,,0.00,136.000000,,2013-01-13 21:52:00,
2013-01-13 15:22:00,1.0,-5.0,-100.00,NW,325,4.0,9.0,75,0.00,,,0.00,68.000000,,2013-01-13 22:22:00,
2013-01-13 15:33:00,1.0,-5.0,-100.00,NW,325,4.0,9.0,75,0.00,,,0.00,68.000000,,2013-01-13 22:33:00,
2013-01-13 15:42:00,1.0,-5.0,-100.00,NW,325,4.0,9.0,75,0.00,,,0.00,68.000000,,2013-01-13 22:42:00,
2013-01-13 15:52:00,1.0,-5.0,-100.00,NW,325,4.0,9.0,75,0.00,,,0.00,68.000000,,2013-01-13 22:52:00,
2013-01-13 16:22:00,-1.0,-7.0,-100.00,NW,326,4.0,8.0,74,0.00,,,-99.99,55.000000,,2013-01-13 23:22:00,
2013-01-13 16:32:00,-1.0,-7.0,-100.00,NW,326,4.0,8.0,74,0.00,,,-99.99,55.000000,,2013-01-13 23:32:00,
2013-01-13 16:42:00,-1.0,-7.0,-100.00,NW,326,4.0,8.0,74,0.00,,,-99.99,55.000000,,2013-01-13 23:42:00,
2013-01-13 16:52:00,-1.0,-7.0,-100.00,NW,326,4.0,8.0,74,0.00,,,-99.99,55.000000,,2013-01-13 23:52:00,
2013-01-13 17:22:00,-5.0,-11.0,-100.00,North,355,6.0,9.0,73,0.00,,,0.00,29.000000,,2013-01-14 00:22:00,
2013-01-13 17:32:00,-5.0,-11.0,-100.00,North,355,6.0,9.0,73,0.00,,,0.00,29.000000,,2013-01-14 00:32:00,
2013-01-13 17:42:00,-5.0,-11.0,-100.00,North,355,6.0,9.0,73,0.00,,,0.00,29.000000,,2013-01-14 00:42:00,
2013-01-13 17:52:00,-5.0,-11.0,-100.00,North,355,6.0,9.0,73,0.00,,,0.00,29.000000,,2013-01-14 00:52:00,
2013-01-13 18:22:00,-7.0,-14.0,-100.00,North,354,6.0,8.0,72,0.00,,,0.00,3.000000,,2013-01-14 01:22:00,
2013-01-13 18:32:00,-7.0,-14.0,-100.00,North,354,6.0,8.0,72,0.00,,,0.00,3.000000,,2013-01-14 01:32:00,
2013-01-13 18:42:00,-7.0,-14.0,-100.00,North,354,6.0,8.0,72,0.00,,,0.00,3.000000,,2013-01-14 01:42:00,
2013-01-13 18:52:00,-7.0,-14.0,-100.00,North,354,6.0,8.0,72,0.00,,,0.00,3.000000,,2013-01-14 01:52:00,
2013-01-13 19:22:00,-9.0,-16.0,-100.00,West,263,0.0,7.0,72,0.00,,,0.00,0.000000,,2013-01-14 02:22:00,
2013-01-13 19:32:00,-9.0,-16.0,-100.00,West,263,0.0,7.0,72,0.00,,,0.00,0.000000,,2013-01-14 02:32:00,
2013-01-13 19:42:00,-9.0,-16.0,-100.00,West,263,0.0,7.0,72,0.00,,,0.00,0.000000,,2013-01-14 02:42:00,
2013-01-13 19:52:00,-9.0,-16.0,-100.00,West,263,0.0,7.0,72,0.00,,,0.00,0.000000,,2013-01-14 02:52:00,
2013-01-13 20:22:00,-9.0,-16.0,-100.00,WNW,293,0.0,0.0,72,0.00,,,0.00,0.000000,,2013-01-14 03:22:00,
2013-01-13 20:32:00,-9.0,-16.0,-100.00,WNW,293,0.0,0.0,72,0.00,,,0.00,0.000000,,2013-01-14 03:32:00,
2013-01-13 20:42:00,-9.0,-16.0,-100.00,WNW,293,0.0,0.0,72,0.00,,,0.00,0.000000,,2013-01-14 03:42:00,
2013-01-13 20:52:00,-9.0,-16.0,-100.00,WNW,293,0.0,0.0,72,0.00,,,0.00,0.000000,,2013-01-14 03:52:00,
2013-01-13 21:12:00,-9.0,-16.0,-100.00,SW,233,0.0,3.0,72,0.00,,,-99.99,0.000000,,2013-01-14 04:12:00,
2013-01-13 21:22:00,-9.0,-16.0,-100.00,SW,233,0.0,3.0,72,0.00,,,-99.99,0.000000,,2013-01-14 04:22:00,
2013-01-13 21:32:00,-9.0,-16.0,-100.00,SW,233,0.0,3.0,72,0.00,,,-99.99,0.000000,,2013-01-14 04:32:00,
2013-01-13 21:42:00,-9.0,-16.0,-100.00,SW,233,0.0,3.0,72,0.00,,,-99.99,0.000000,,2013-01-14 04:42:00,
2013-01-13 21:52:00,-9.0,-16.0,-100.00,SW,233,0.0,3.0,72,0.00,,,-99.99,0.000000,,2013-01-14 04:52:00,
2013-01-13 22:22:00,-10.0,-17.0,-100.00,North,357,0.0,0.0,71,0.00,,,0.00,0.000000,,2013-01-14 05:22:00,
2013-01-13 22:32:00,-10.0,-17.0,-100.00,North,357,0.0,0.0,71,0.00,,,0.00,0.000000,,2013-01-14 05:32:00,
2013-01-13 22:42:00,-10.0,-17.0,-100.00,North,357,0.0,0.0,71,0.00,,,0.00,0.000000,,2013-01-14 05:42:00,
2013-01-13 22:52:00,-10.0,-17.0,-100.00,North,357,0.0,0.0,71,0.00,,,0.00,0.000000,,2013-01-14 05:52:00,
2013-01-13 23:22:00,-8.0,-15.0,-100.00,SSE,164,0.0,0.0,72,0.00,,,0.00,0.000000,,2013-01-14 06:22:00,
2013-01-13 23:32:00,-8.0,-15.0,-100.00,SSE,164,0.0,0.0,72,0.00,,,0.00,0.000000,,2013-01-14 06:32:00,
2013-01-13 23:42:00,-8.0,-15.0,-100.00,SSE,164,0.0,0.0,72,0.00,,,0.00,0.000000,,2013-01-14 06:42:00,
2013-01-13 23:52:00,-8.0,-15.0,-100.00,SSE,164,0.0,0.0,72,0.00,,,0.00,0.000000,,2013-01-14 06:52:00,